sat.trackr.live / text

‹ back to catalog

STARLINK-2480

NORAD 48137 · 2021-027AX

PAYLOAD ACTIVE UNKNOWN

§ Identity

Operator
Country
US
Launch date
2021-04-07
Launch site
AFETR
Launch vehicle
Mass (kg)
RCS (m²)

Purposes: comms

External: N2YO · Heavens-Above · Gunter

§ Orbital elements

Epoch: 2026-09-20T05:03:32.610240Z

Period
94.01 min
Inclination
53.1601°
Eccentricity
0.0001484
Mean motion
15.31702740 rev/d
Perigee alt
469.7 km
Apogee alt
471.7 km
Semi-major
6,848.9 km
B*
2.4300e-6
RAAN
330.0766°
Arg perigee
95.4541°
Mean anomaly
264.6630°
Rev number
30,244

§ Raw data

STARLINK-24801 48137U 21027AX  26263.21079410 -.00000290  00000+0  24300-5 0  99932 48137  53.1601 330.0766 0001484  95.4541 264.6630 15.31702740302441

JSON: /api/v1/satellites/48137 · /tle

For live sub-satellite position, see the globe view (requires WebGL).

§ Visibility from observer

Set your observer location to see the next 7 days of passes ≥ 10°. The values pass through the URL so the page stays shareable.

No JS? Fill the form by hand. The geolocation button needs JavaScript.